Hagerstown, MD

11:56 AM EST on November 13, 2019 (GMT -0500)
Hagerstown Regional-Henson

Weather History for KHGR - September, 2019

Change the Weather History Date:

Monday, September 2, 2019

  Actual Average Record
Temperature  
Mean Temperature 78 °F 70 °F  
Max Temperature 86 °F 80 °F 97 °F (2010)
Min Temperature 70 °F 61 °F 53 °F (2001)
Degree Days  
Heating Degree Days 0 0  
Month to date heating degree days 0 0  
Since 1 July heating degree days 0 5  
Cooling Degree Days 13 6  
Month to date cooling degree days 19 12  
Year to date cooling degree days 1228 880  
Growing Degree Days 28 (Base 50)    
Moisture  
Dew Point 66 °F    
Average Humidity 71    
Maximum Humidity 90    
Minimum Humidity 51    
Precipitation  
Precipitation 0.05 in 0.10 in 1.18 in (2006)
Month to date precipitation 0.05 0.19  
Year to date precipitation 28.42 26.82  
Sea Level Pressure  
Sea Level Pressure 30.06 in    
Wind  
Wind Speed 8 mph (South)    
Max Wind Speed 21 mph    
Max Gust Speed 25 mph    
Visibility 10 miles    
Events Rain , Thunderstorm    
T = Trace of Precipitation, MM = Missing Value Source: NWS Daily Summary

Daily Weather History Graph

Daily Weather History Graph

Search for Another Location

Airport or City:

Astronomy

Sep. 02, 2019 Rise Set
Actual Time 6:39 AM EDT 7:40 PM EDT
Civil Twilight 6:12 AM EDT 8:08 PM EDT
Nautical Twilight 5:39 AM EDT 8:41 PM EDT
Astronomical Twilight 5:04 AM EDT 9:15 PM EDT
Moon 10:19 AM EDT (9/2) 10:01 PM EDT (9/2)
Length of Visible Light 13h 56m
Length of Day
13h 01m
Waxing Crescent, 15% of the Moon is Illuminated
Sep 2
Waxing Crescent
Sep 5
First Quarter
Sep 14
Full
Sep 21
Last Quarter
Sep 28
New

Hourly Weather History & Observations

Time (EDT) Temp. Heat Index Dew Point Humidity Pressure Visibility Wind Dir Wind Speed Gust Speed Precip Events Conditions
12:53 AM 72.0 °F - 66.0 °F 81% 30.16 in 10.0 mi SSE 12.7 mph - N/A   Clear
1:20 AM 71.1 °F - 66.0 °F 84% 30.15 in 10.0 mi South 11.5 mph - N/A   Mostly Cloudy
1:53 AM 71.1 °F - 66.0 °F 84% 30.16 in 10.0 mi SSE 11.5 mph - N/A   Mostly Cloudy
2:20 AM 71.1 °F - 66.0 °F 84% 30.12 in 10.0 mi SSE 15.0 mph - N/A   Mostly Cloudy
2:31 AM 71.1 °F - 66.0 °F 84% 30.11 in 10.0 mi SSE 13.8 mph - N/A   Scattered Clouds
2:53 AM 71.1 °F - 66.9 °F 87% 30.12 in 10.0 mi SSE 12.7 mph - N/A   Mostly Cloudy
3:53 AM 71.1 °F - 66.9 °F 87% 30.11 in 10.0 mi South 11.5 mph - N/A   Overcast
4:26 AM 71.1 °F - 66.9 °F 87% 30.08 in 10.0 mi SSE 10.4 mph - N/A   Overcast
4:53 AM 71.1 °F - 66.9 °F 87% 30.10 in 10.0 mi SSE 12.7 mph - N/A   Overcast
5:53 AM 71.1 °F - 68.0 °F 90% 30.10 in 6.0 mi South 12.7 mph - 0.03 in Rain Light Rain
6:07 AM 71.1 °F - 68.0 °F 90% 30.08 in 8.0 mi South 9.2 mph - 0.01 in Rain Light Rain
6:53 AM 70.0 °F - 68.0 °F 93% 30.10 in 10.0 mi South 6.9 mph - 0.02 in   Mostly Cloudy
7:53 AM 71.1 °F - 68.0 °F 90% 30.10 in 9.0 mi South 9.2 mph - N/A   Mostly Cloudy
8:43 AM 72.0 °F - 68.0 °F 87% 30.08 in 9.0 mi South 10.4 mph 18.4 mph N/A   Scattered Clouds
8:53 AM 72.0 °F - 68.0 °F 87% 30.09 in 10.0 mi South 10.4 mph - N/A   Scattered Clouds
9:16 AM 72.0 °F - 68.0 °F 87% 30.08 in 10.0 mi SSW 6.9 mph - N/A   Mostly Cloudy
9:48 AM 73.4 °F - 66.2 °F 78% 30.07 in 10.0 mi South 9.2 mph - N/A   Scattered Clouds
9:53 AM 73.0 °F - 66.9 °F 81% 30.08 in 10.0 mi South 10.4 mph - N/A   Scattered Clouds
10:53 AM 75.9 °F - 66.9 °F 74% 30.08 in 10.0 mi SW 11.5 mph - N/A   Mostly Cloudy
11:53 AM 79.0 °F - 64.9 °F 62% 30.06 in 10.0 mi SW 10.4 mph - N/A   Partly Cloudy
12:53 PM 82.0 °F 83.8 °F 64.9 °F 56% 30.03 in 10.0 mi SW 6.9 mph - N/A   Scattered Clouds
1:53 PM 82.9 °F 84.6 °F 64.9 °F 54% 30.02 in 10.0 mi South 8.1 mph 16.1 mph N/A   Scattered Clouds
2:53 PM 84.0 °F 85.8 °F 64.9 °F 53% 29.99 in 10.0 mi SW 6.9 mph - N/A   Scattered Clouds
3:53 PM 84.9 °F 86.1 °F 64.0 °F 49% 29.98 in 10.0 mi West 8.1 mph - N/A   Partly Cloudy
4:08 PM 86.0 °F 87.3 °F 64.0 °F 48% 29.97 in 10.0 mi West 11.5 mph - N/A Thunderstorm Thunderstorm
4:28 PM 80.1 °F 81.9 °F 64.9 °F 60% 29.98 in 10.0 mi North 11.5 mph - N/A Thunderstorm Thunderstorm
4:50 PM 80.6 °F 82.3 °F 64.4 °F 58% 29.96 in 10.0 mi North 6.9 mph - N/A   Partly Cloudy
4:53 PM 80.1 °F 81.9 °F 64.9 °F 60% 29.97 in 10.0 mi North 6.9 mph - N/A   Clear
5:53 PM 79.0 °F - 66.0 °F 64% 29.99 in 10.0 mi ESE 6.9 mph - N/A   Mostly Cloudy
6:53 PM 77.0 °F - 66.9 °F 71% 29.99 in 10.0 mi ENE 5.8 mph - N/A Thunderstorm Mostly Cloudy
7:53 PM 77.0 °F - 66.0 °F 69% 30.01 in 10.0 mi ESE 4.6 mph - N/A Thunderstorm Mostly Cloudy
8:53 PM 73.9 °F - 66.0 °F 76% 30.03 in 10.0 mi Calm Calm - N/A   Mostly Cloudy
9:53 PM 73.0 °F - 64.9 °F 76% 30.05 in 10.0 mi Calm Calm - N/A   Mostly Cloudy
10:53 PM 73.0 °F - 66.0 °F 79% 30.06 in 10.0 mi Calm Calm - N/A   Overcast
11:53 PM 70.0 °F - 64.9 °F 84% 30.07 in 10.0 mi NW 3.5 mph - N/A   Partly Cloudy